WXM80 ListenWXM80 Stop

You find our weather info also at:

UK Metoffice

WeatherCloud

Weather Underground

Northeastern Weather Network

AWEKAS

Citizen Weather Observer Program (CWOP)

HAMweather, WeatherForYou, PWS Weather


Weather Underground History page Text

Daily Summary for February 11, 2016 Units:  English    Metric   Both
« Previous Day
Next Day »
Daily Weekly Monthly Yearly Custom
  High: Low: Average:
Temperature: 32.3 °F 18.5 °F 25.1 °F
Dew Point: 25.1 °F 4.6 °F 10.8 °F
Humidity: 82 % 42 % 55 %
Wind Speed: 15.3 mph 2.1 mph 8.4 mph
Wind Gust: 26.5 mph - -
Wind:- - WNW
Pressure: 30.17 in 29.70 in -
Precipitation: 0.00 in    
Historical Graphs
 
 
Tabular Data for February 11, 2016
Time Temperature Dew Point Pressure Wind Wind Speed Wind Gust Humidity Rainfall Rate (Hourly)
00:00 32.3 °F 23.6 °F 29.70 in West 3.8 mph 10.4 mph 70 % 0.00 in
00:05 32.3 °F 23.3 °F 29.70 in WNW 6.4 mph 10.4 mph 69 % 0.00 in
00:10 32.3 °F 23.3 °F 29.70 in WSW 5.2 mph 11.5 mph 69 % 0.00 in
00:15 32.3 °F 22.9 °F 29.70 in WSW 9.6 mph 15.0 mph 68 % 0.00 in
00:20 32.3 °F 22.9 °F 29.70 in WNW 2.1 mph 8.1 mph 68 % 0.00 in
00:25 32.3 °F 23.3 °F 29.70 in West 5.5 mph 8.1 mph 69 % 0.00 in
00:30 32.3 °F 22.9 °F 29.70 in WSW 4.6 mph 9.2 mph 68 % 0.00 in
00:35 32.3 °F 22.9 °F 29.70 in WSW 7.6 mph 11.5 mph 68 % 0.00 in
00:40 32.3 °F 22.9 °F 29.70 in West 3.2 mph 6.9 mph 68 % 0.00 in
00:45 32.3 °F 22.9 °F 29.70 in WNW 4.0 mph 5.0 mph 68 % 0.00 in
00:50 32.2 °F 23.2 °F 29.70 in WNW 5.0 mph 11.5 mph 69 % 0.00 in
00:56 32.2 °F 23.2 °F 29.71 in WNW 6.5 mph 11.5 mph 69 % 0.00 in
01:01 32.2 °F 23.2 °F 29.71 in West 5.2 mph 9.2 mph 69 % 0.00 in
01:06 32.1 °F 22.7 °F 29.71 in WSW 7.1 mph 11.5 mph 68 % 0.00 in
01:11 32.1 °F 23.1 °F 29.70 in SW 4.1 mph 8.1 mph 69 % 0.00 in
01:16 32.0 °F 22.6 °F 29.70 in West 8.2 mph 14.0 mph 68 % 0.00 in
01:21 32.0 °F 23.0 °F 29.71 in WNW 3.7 mph 9.2 mph 69 % 0.00 in
01:26 31.9 °F 23.2 °F 29.70 in WSW 2.3 mph 5.8 mph 70 % 0.00 in
01:31 31.8 °F 23.1 °F 29.70 in WSW 6.6 mph 12.7 mph 70 % 0.00 in
01:36 31.6 °F 22.9 °F 29.71 in WNW 5.7 mph 9.2 mph 70 % 0.00 in
01:47 31.5 °F 23.2 °F 29.70 in WSW 5.3 mph 12.7 mph 71 % 0.00 in
01:52 31.4 °F 23.1 °F 29.70 in West 4.3 mph 6.9 mph 71 % 0.00 in
01:57 31.4 °F 23.1 °F 29.70 in SW 7.0 mph 13.8 mph 71 % 0.00 in
02:02 31.3 °F 23.3 °F 29.71 in NW 6.2 mph 13.0 mph 72 % 0.00 in
02:07 31.2 °F 23.2 °F 29.71 in WNW 4.6 mph 10.4 mph 72 % 0.00 in
02:12 31.1 °F 23.8 °F 29.71 in WNW 5.9 mph 12.7 mph 74 % 0.00 in
02:17 31.0 °F 24.0 °F 29.71 in West 5.6 mph 11.5 mph 75 % 0.00 in
02:22 31.0 °F 24.3 °F 29.72 in NE 5.4 mph 18.4 mph 76 % 0.00 in
02:27 30.8 °F 25.1 °F 29.72 in NW 8.5 mph 12.7 mph 79 % 0.00 in
02:38 30.0 °F 24.9 °F 29.72 in WNW 7.4 mph 11.5 mph 81 % 0.00 in
02:43 29.6 °F 24.5 °F 29.72 in WSW 6.6 mph 10.4 mph 81 % 0.00 in
02:48 29.4 °F 24.3 °F 29.72 in WSW 4.3 mph 8.1 mph 81 % 0.00 in
02:53 29.3 °F 24.5 °F 29.72 in West 5.6 mph 11.5 mph 82 % 0.00 in
02:58 29.3 °F 24.5 °F 29.72 in West 4.6 mph 11.5 mph 82 % 0.00 in
03:03 29.0 °F 24.2 °F 29.72 in NNW 7.2 mph 15.0 mph 82 % 0.00 in
03:08 28.6 °F 22.6 °F 29.72 in WNW 9.8 mph 15.0 mph 78 % 0.00 in
03:13 28.3 °F 22.0 °F 29.72 in West 10.0 mph 17.3 mph 77 % 0.00 in
03:18 28.1 °F 21.5 °F 29.72 in NW 4.8 mph 10.4 mph 76 % 0.00 in
03:23 28.0 °F 21.4 °F 29.72 in WNW 5.9 mph 12.7 mph 76 % 0.00 in
03:29 28.0 °F 20.8 °F 29.72 in WNW 8.2 mph 18.4 mph 74 % 0.00 in
03:34 27.9 °F 19.7 °F 29.72 in NNW 10.6 mph 19.6 mph 71 % 0.00 in
03:39 27.9 °F 19.7 °F 29.73 in WNW 5.9 mph 9.2 mph 71 % 0.00 in
03:44 27.9 °F 19.4 °F 29.73 in WNW 7.8 mph 12.7 mph 70 % 0.00 in
03:49 27.9 °F 19.4 °F 29.73 in WNW 8.2 mph 15.0 mph 70 % 0.00 in
03:54 27.8 °F 18.9 °F 29.73 in West 7.6 mph 11.5 mph 69 % 0.00 in
03:59 27.7 °F 18.5 °F 29.74 in West 5.6 mph 11.5 mph 68 % 0.00 in
04:04 27.7 °F 17.8 °F 29.74 in West 9.1 mph 16.0 mph 66 % 0.00 in
04:09 27.6 °F 17.0 °F 29.74 in WNW 7.0 mph 11.5 mph 64 % 0.00 in
04:14 27.6 °F 17.0 °F 29.74 in WSW 8.2 mph 18.4 mph 64 % 0.00 in
04:20 27.6 °F 16.6 °F 29.74 in WNW 3.8 mph 11.5 mph 63 % 0.00 in
04:25 27.5 °F 16.9 °F 29.74 in WNW 8.2 mph 14.0 mph 64 % 0.00 in
04:30 27.4 °F 16.4 °F 29.74 in North 6.0 mph 17.3 mph 63 % 0.00 in
04:35 27.3 °F 16.7 °F 29.74 in WSW 6.0 mph 12.0 mph 64 % 0.00 in
04:40 27.2 °F 16.3 °F 29.74 in West 9.3 mph 13.0 mph 63 % 0.00 in
04:45 27.0 °F 16.1 °F 29.74 in West 7.4 mph 10.4 mph 63 % 0.00 in
04:55 26.9 °F 16.3 °F 29.75 in WNW 7.7 mph 13.8 mph 64 % 0.00 in
05:00 26.8 °F 16.2 °F 29.75 in WSW 5.7 mph 11.5 mph 64 % 0.00 in
05:05 26.8 °F 16.2 °F 29.75 in NW 9.8 mph 15.0 mph 64 % 0.00 in
05:11 26.7 °F 15.8 °F 29.75 in WNW 5.1 mph 11.5 mph 63 % 0.00 in
05:16 26.6 °F 15.3 °F 29.75 in NW 5.3 mph 11.5 mph 62 % 0.00 in
05:21 26.5 °F 14.9 °F 29.76 in NNW 4.9 mph 16.1 mph 61 % 0.00 in
05:26 26.4 °F 14.4 °F 29.76 in NNW 8.0 mph 15.0 mph 60 % 0.00 in
05:31 26.3 °F 13.9 °F 29.76 in West 4.7 mph 9.2 mph 59 % 0.00 in
05:36 26.2 °F 13.8 °F 29.76 in WNW 9.2 mph 19.6 mph 59 % 0.00 in
05:41 26.1 °F 13.7 °F 29.76 in NW 8.4 mph 12.7 mph 59 % 0.00 in
05:46 25.9 °F 11.9 °F 29.77 in WSW 7.1 mph 19.6 mph 55 % 0.00 in
05:51 25.7 °F 12.2 °F 29.77 in WNW 8.0 mph 20.0 mph 56 % 0.00 in
06:02 25.3 °F 11.4 °F 29.78 in South 8.0 mph 15.0 mph 55 % 0.00 in
06:07 25.2 °F 10.9 °F 29.78 in NW 6.7 mph 19.6 mph 54 % 0.00 in
06:12 25.1 °F 11.2 °F 29.78 in WNW 7.8 mph 18.4 mph 55 % 0.00 in
06:17 24.9 °F 11.4 °F 29.78 in WNW 11.8 mph 18.4 mph 56 % 0.00 in
06:22 24.9 °F 11.8 °F 29.78 in West 7.4 mph 16.1 mph 57 % 0.00 in
06:27 24.8 °F 11.7 °F 29.78 in NW 10.1 mph 16.1 mph 57 % 0.00 in
06:37 24.6 °F 10.7 °F 29.79 in NW 6.3 mph 16.1 mph 55 % 0.00 in
06:42 24.5 °F 11.0 °F 29.80 in SW 3.7 mph 8.1 mph 56 % 0.00 in
06:47 24.3 °F 10.4 °F 29.80 in WNW 9.7 mph 13.8 mph 55 % 0.00 in
06:58 24.2 °F 10.3 °F 29.81 in NNW 5.5 mph 13.8 mph 55 % 0.00 in
07:08 23.9 °F 10.1 °F 29.81 in WSW 7.0 mph 13.8 mph 55 % 0.00 in
07:13 23.9 °F 10.1 °F 29.81 in NW 5.9 mph 12.0 mph 55 % 0.00 in
07:18 23.9 °F 10.1 °F 29.82 in NW 9.7 mph 17.3 mph 55 % 0.00 in
07:23 23.9 °F 9.6 °F 29.82 in West 8.9 mph 16.1 mph 54 % 0.00 in
07:28 23.9 °F 9.2 °F 29.82 in West 11.4 mph 18.0 mph 53 % 0.00 in
07:33 23.9 °F 9.6 °F 29.83 in West 5.2 mph 19.6 mph 54 % 0.00 in
07:38 23.9 °F 9.2 °F 29.83 in NW 5.9 mph 15.0 mph 53 % 0.00 in
07:44 23.9 °F 9.2 °F 29.83 in WSW 6.5 mph 15.0 mph 53 % 0.00 in
07:49 24.0 °F 9.3 °F 29.83 in NW 9.5 mph 18.4 mph 53 % 0.00 in
07:59 24.0 °F 9.7 °F 29.84 in WSW 5.1 mph 11.0 mph 54 % 0.00 in
08:04 24.0 °F 8.9 °F 29.84 in NW 4.9 mph 15.0 mph 52 % 0.00 in
08:09 24.0 °F 8.5 °F 29.84 in WNW 8.0 mph 13.8 mph 51 % 0.00 in
08:14 24.1 °F 8.1 °F 29.85 in WSW 8.5 mph 14.0 mph 50 % 0.00 in
08:19 24.2 °F 8.2 °F 29.84 in West 8.7 mph 18.4 mph 50 % 0.00 in
08:24 24.2 °F 7.3 °F 29.85 in WNW 5.7 mph 15.0 mph 48 % 0.00 in
08:30 24.2 °F 7.3 °F 29.85 in WNW 5.8 mph 15.0 mph 48 % 0.00 in
08:35 24.4 °F 7.9 °F 29.85 in NW 6.3 mph 16.1 mph 49 % 0.00 in
08:40 24.5 °F 8.0 °F 29.85 in NW 7.9 mph 13.8 mph 49 % 0.00 in
08:45 24.7 °F 8.2 °F 29.85 in WNW 8.8 mph 19.6 mph 49 % 0.00 in
08:50 24.9 °F 8.9 °F 29.85 in West 8.2 mph 12.7 mph 50 % 0.00 in
08:55 25.2 °F 8.2 °F 29.85 in NW 7.1 mph 11.5 mph 48 % 0.00 in
09:00 25.3 °F 8.3 °F 29.85 in NW 8.4 mph 13.0 mph 48 % 0.00 in
09:05 25.7 °F 8.7 °F 29.85 in WNW 6.2 mph 11.5 mph 48 % 0.00 in
09:10 25.8 °F 7.8 °F 29.85 in WSW 10.4 mph 18.4 mph 46 % 0.00 in
09:15 26.0 °F 8.5 °F 29.85 in SW 11.5 mph 18.4 mph 47 % 0.00 in
09:21 26.0 °F 8.0 °F 29.85 in West 8.2 mph 15.0 mph 46 % 0.00 in
09:26 25.9 °F 8.9 °F 29.85 in WSW 10.1 mph 14.0 mph 48 % 0.00 in
09:31 25.8 °F 8.3 °F 29.85 in NW 7.6 mph 16.1 mph 47 % 0.00 in
09:36 26.0 °F 9.4 °F 29.85 in NW 8.7 mph 12.7 mph 49 % 0.00 in
09:41 26.1 °F 8.1 °F 29.85 in SW 7.4 mph 18.4 mph 46 % 0.00 in
09:51 26.6 °F 9.1 °F 29.85 in NW 9.4 mph 13.8 mph 47 % 0.00 in
09:56 26.7 °F 9.1 °F 29.86 in West 8.2 mph 12.0 mph 47 % 0.00 in
10:01 26.9 °F 9.3 °F 29.86 in WNW 7.0 mph 11.5 mph 47 % 0.00 in
10:06 27.2 °F 9.1 °F 29.86 in NW 9.8 mph 17.3 mph 46 % 0.00 in
10:12 27.4 °F 8.8 °F 29.86 in NW 8.1 mph 24.2 mph 45 % 0.00 in
10:17 27.6 °F 9.5 °F 29.86 in West 9.0 mph 13.8 mph 46 % 0.00 in
10:22 27.3 °F 8.2 °F 29.86 in West 6.1 mph 19.6 mph 44 % 0.00 in
10:27 27.2 °F 8.6 °F 29.86 in NW 8.5 mph 15.0 mph 45 % 0.00 in
10:38 26.3 °F 7.3 °F 29.86 in West 9.4 mph 17.0 mph 44 % 0.00 in
10:43 26.1 °F 7.6 °F 29.86 in SW 8.4 mph 15.0 mph 45 % 0.00 in
10:48 26.1 °F 7.6 °F 29.87 in West 6.2 mph 11.5 mph 45 % 0.00 in
11:03 26.2 °F 8.2 °F 29.86 in NNW 6.6 mph 11.5 mph 46 % 0.00 in
11:08 26.0 °F 6.5 °F 29.86 in West 8.9 mph 23.0 mph 43 % 0.00 in
11:13 25.6 °F 5.6 °F 29.87 in West 9.6 mph 12.7 mph 42 % 0.00 in
11:18 25.6 °F 6.2 °F 29.87 in West 8.3 mph 17.3 mph 43 % 0.00 in
11:24 26.2 °F 6.7 °F 29.86 in WSW 6.0 mph 19.6 mph 43 % 0.00 in
11:29 27.0 °F 7.4 °F 29.86 in West 7.3 mph 18.4 mph 43 % 0.00 in
11:34 27.5 °F 8.4 °F 29.86 in NW 9.3 mph 15.0 mph 44 % 0.00 in
11:39 27.5 °F 8.4 °F 29.86 in NW 7.2 mph 16.1 mph 44 % 0.00 in
11:44 27.2 °F 8.1 °F 29.86 in West 7.4 mph 16.1 mph 44 % 0.00 in
11:49 26.9 °F 7.9 °F 29.86 in WSW 7.0 mph 20.0 mph 44 % 0.00 in
11:54 26.5 °F 8.0 °F 29.86 in North 10.5 mph 17.3 mph 45 % 0.00 in
11:59 26.0 °F 8.5 °F 29.86 in NW 3.3 mph 13.8 mph 47 % 0.00 in
12:04 25.8 °F 7.8 °F 29.85 in NW 7.4 mph 13.8 mph 46 % 0.00 in
12:09 25.9 °F 7.9 °F 29.85 in WNW 8.9 mph 11.5 mph 46 % 0.00 in
12:15 26.3 °F 7.3 °F 29.86 in NW 11.1 mph 17.0 mph 44 % 0.00 in
12:20 26.7 °F 7.2 °F 29.86 in NW 9.1 mph 18.4 mph 43 % 0.00 in
12:25 26.7 °F 8.2 °F 29.85 in WNW 4.8 mph 24.2 mph 45 % 0.00 in
12:30 26.3 °F 6.8 °F 29.85 in NW 12.0 mph 18.4 mph 43 % 0.00 in
12:35 26.2 °F 6.7 °F 29.85 in NW 13.2 mph 25.3 mph 43 % 0.00 in
12:45 26.9 °F 7.4 °F 29.85 in NW 7.8 mph 13.8 mph 43 % 0.00 in
12:50 27.2 °F 8.6 °F 29.85 in WNW 9.9 mph 15.0 mph 45 % 0.00 in
12:55 26.9 °F 9.3 °F 29.85 in NW 10.3 mph 16.1 mph 47 % 0.00 in
13:00 26.5 °F 8.5 °F 29.84 in WNW 7.8 mph 19.6 mph 46 % 0.00 in
13:06 26.6 °F 8.1 °F 29.85 in West 11.4 mph 20.0 mph 45 % 0.00 in
13:11 26.6 °F 7.6 °F 29.84 in NW 11.7 mph 19.6 mph 44 % 0.00 in
13:16 26.6 °F 8.1 °F 29.84 in SW 10.0 mph 19.6 mph 45 % 0.00 in
13:21 26.5 °F 7.5 °F 29.85 in WNW 7.4 mph 15.0 mph 44 % 0.00 in
13:26 26.4 °F 7.9 °F 29.85 in WSW 10.6 mph 20.7 mph 45 % 0.00 in
13:31 26.6 °F 8.1 °F 29.85 in NW 6.6 mph 17.3 mph 45 % 0.00 in
13:36 26.5 °F 8.0 °F 29.85 in West 12.1 mph 19.6 mph 45 % 0.00 in
13:41 26.3 °F 7.8 °F 29.85 in NW 9.3 mph 21.9 mph 45 % 0.00 in
13:46 26.5 °F 9.9 °F 29.85 in WSW 8.1 mph 18.4 mph 49 % 0.00 in
13:51 26.2 °F 10.1 °F 29.85 in WNW 6.3 mph 12.7 mph 50 % 0.00 in
13:57 25.9 °F 9.3 °F 29.85 in WNW 6.3 mph 15.0 mph 49 % 0.00 in
14:02 26.0 °F 9.4 °F 29.85 in WSW 11.1 mph 13.8 mph 49 % 0.00 in
14:07 26.5 °F 10.3 °F 29.85 in NW 9.6 mph 18.4 mph 50 % 0.00 in
14:12 26.4 °F 9.8 °F 29.85 in West 8.1 mph 22.0 mph 49 % 0.00 in
14:17 26.1 °F 10.4 °F 29.86 in WNW 10.8 mph 15.0 mph 51 % 0.00 in
14:22 25.7 °F 10.0 °F 29.86 in NW 11.2 mph 22.0 mph 51 % 0.00 in
14:27 25.5 °F 10.3 °F 29.86 in NW 12.0 mph 18.4 mph 52 % 0.00 in
14:32 25.6 °F 10.8 °F 29.87 in WNW 10.0 mph 11.5 mph 53 % 0.00 in
14:37 25.8 °F 10.6 °F 29.86 in NW 11.6 mph 19.6 mph 52 % 0.00 in
14:42 25.6 °F 8.1 °F 29.86 in WNW 8.3 mph 19.6 mph 47 % 0.00 in
14:53 24.9 °F 9.3 °F 29.87 in WSW 10.7 mph 23.0 mph 51 % 0.00 in
14:58 24.9 °F 8.9 °F 29.87 in WSW 12.1 mph 20.7 mph 50 % 0.00 in
15:03 25.0 °F 9.0 °F 29.87 in West 4.8 mph 10.4 mph 50 % 0.00 in
15:08 25.2 °F 7.8 °F 29.88 in WNW 9.4 mph 16.1 mph 47 % 0.00 in
15:13 25.4 °F 7.5 °F 29.88 in NW 9.8 mph 14.0 mph 46 % 0.00 in
15:18 25.6 °F 7.7 °F 29.88 in NNW 7.8 mph 17.3 mph 46 % 0.00 in
15:23 25.6 °F 8.1 °F 29.89 in NW 9.5 mph 16.1 mph 47 % 0.00 in
15:28 25.4 °F 7.9 °F 29.89 in NW 12.5 mph 18.4 mph 47 % 0.00 in
15:33 25.2 °F 7.8 °F 29.90 in NW 7.3 mph 20.7 mph 47 % 0.00 in
15:39 25.2 °F 8.7 °F 29.90 in NNW 10.4 mph 16.1 mph 49 % 0.00 in
15:44 25.1 °F 7.2 °F 29.91 in NW 8.8 mph 16.1 mph 46 % 0.00 in
15:49 25.0 °F 6.6 °F 29.90 in West 10.8 mph 24.2 mph 45 % 0.00 in
15:54 24.8 °F 6.9 °F 29.90 in WNW 11.2 mph 23.0 mph 46 % 0.00 in
15:59 24.7 °F 6.8 °F 29.91 in WNW 7.4 mph 18.4 mph 46 % 0.00 in
16:04 24.7 °F 6.3 °F 29.91 in SW 8.8 mph 12.7 mph 45 % 0.00 in
16:09 24.6 °F 6.7 °F 29.92 in WNW 9.7 mph 15.0 mph 46 % 0.00 in
16:14 24.6 °F 7.2 °F 29.91 in NW 11.0 mph 19.6 mph 47 % 0.00 in
16:19 24.6 °F 6.7 °F 29.92 in NW 10.1 mph 21.0 mph 46 % 0.00 in
16:30 24.4 °F 7.5 °F 29.93 in WNW 11.6 mph 18.0 mph 48 % 0.00 in
16:35 24.4 °F 7.0 °F 29.93 in WNW 15.3 mph 22.0 mph 47 % 0.00 in
16:40 24.2 °F 6.4 °F 29.93 in North 8.7 mph 17.3 mph 46 % 0.00 in
16:45 24.2 °F 7.8 °F 29.94 in West 10.3 mph 18.4 mph 49 % 0.00 in
16:50 24.1 °F 6.7 °F 29.94 in West 9.5 mph 15.0 mph 47 % 0.00 in
16:55 23.9 °F 5.6 °F 29.94 in West 11.1 mph 20.7 mph 45 % 0.00 in
17:00 23.8 °F 6.0 °F 29.95 in NNW 8.2 mph 19.6 mph 46 % 0.00 in
17:05 23.7 °F 6.4 °F 29.95 in WNW 13.1 mph 23.0 mph 47 % 0.00 in
17:10 23.6 °F 5.8 °F 29.95 in NW 12.0 mph 26.5 mph 46 % 0.00 in
17:15 23.5 °F 5.7 °F 29.96 in NW 11.3 mph 14.0 mph 46 % 0.00 in
17:21 23.4 °F 6.1 °F 29.96 in SW 7.8 mph 17.3 mph 47 % 0.00 in
17:26 23.3 °F 5.5 °F 29.97 in NW 10.6 mph 25.3 mph 46 % 0.00 in
17:31 23.1 °F 6.3 °F 29.97 in West 10.7 mph 19.6 mph 48 % 0.00 in
17:36 23.0 °F 6.7 °F 29.97 in WNW 8.3 mph 16.1 mph 49 % 0.00 in
17:41 23.0 °F 6.7 °F 29.98 in WNW 9.3 mph 19.6 mph 49 % 0.00 in
17:51 22.9 °F 6.6 °F 29.98 in WNW 9.7 mph 21.9 mph 49 % 0.00 in
17:56 22.9 °F 6.1 °F 29.98 in WNW 6.8 mph 19.6 mph 48 % 0.00 in
18:01 22.8 °F 6.5 °F 29.99 in WSW 12.1 mph 18.0 mph 49 % 0.00 in
18:12 22.6 °F 5.4 °F 29.99 in NNW 14.1 mph 16.1 mph 47 % 0.00 in
18:17 22.6 °F 5.8 °F 30.00 in West 10.2 mph 19.6 mph 48 % 0.00 in
18:22 22.6 °F 5.4 °F 30.01 in NW 14.8 mph 19.6 mph 47 % 0.00 in
18:27 22.6 °F 5.8 °F 30.01 in WNW 11.9 mph 19.6 mph 48 % 0.00 in
18:32 22.7 °F 6.8 °F 30.01 in West 14.5 mph 24.2 mph 50 % 0.00 in
18:37 22.6 °F 6.3 °F 30.02 in SW 13.8 mph 25.3 mph 49 % 0.00 in
18:42 22.5 °F 5.7 °F 30.02 in WNW 9.9 mph 21.9 mph 48 % 0.00 in
18:47 22.3 °F 4.6 °F 30.03 in West 13.3 mph 23.0 mph 46 % 0.00 in
18:57 22.1 °F 5.8 °F 30.03 in NNE 6.1 mph 16.1 mph 49 % 0.00 in
19:03 22.1 °F 6.3 °F 30.04 in NNW 9.9 mph 19.6 mph 50 % 0.00 in
19:08 22.0 °F 6.2 °F 30.04 in NW 7.9 mph 18.4 mph 50 % 0.00 in
19:13 21.9 °F 5.2 °F 30.05 in WNW 10.5 mph 17.3 mph 48 % 0.00 in
19:18 21.8 °F 5.1 °F 30.04 in WNW 11.3 mph 19.6 mph 48 % 0.00 in
19:23 21.6 °F 4.9 °F 30.05 in NNW 9.5 mph 20.7 mph 48 % 0.00 in
19:28 21.6 °F 5.8 °F 30.06 in WNW 8.0 mph 17.0 mph 50 % 0.00 in
19:33 21.6 °F 5.4 °F 30.06 in WNW 7.2 mph 16.1 mph 49 % 0.00 in
19:43 21.5 °F 5.7 °F 30.06 in West 8.6 mph 14.0 mph 50 % 0.00 in
19:48 21.4 °F 5.6 °F 30.07 in WNW 11.5 mph 20.0 mph 50 % 0.00 in
19:54 21.3 °F 6.0 °F 30.06 in WNW 9.6 mph 26.5 mph 51 % 0.00 in
19:59 21.3 °F 6.0 °F 30.07 in WNW 6.3 mph 18.0 mph 51 % 0.00 in
20:04 21.2 °F 6.3 °F 30.07 in NNW 10.0 mph 19.6 mph 52 % 0.00 in
20:09 21.0 °F 5.7 °F 30.07 in NW 8.5 mph 16.1 mph 51 % 0.00 in
20:14 20.9 °F 6.4 °F 30.08 in WNW 9.9 mph 21.9 mph 53 % 0.00 in
20:19 20.8 °F 6.7 °F 30.08 in WNW 10.2 mph 19.6 mph 54 % 0.00 in
20:24 20.7 °F 6.7 °F 30.08 in WNW 10.1 mph 19.0 mph 54 % 0.00 in
20:29 20.6 °F 7.0 °F 30.09 in WNW 10.7 mph 26.5 mph 55 % 0.00 in
20:34 20.5 °F 6.1 °F 30.09 in West 8.6 mph 18.0 mph 53 % 0.00 in
20:39 20.3 °F 6.7 °F 30.09 in NW 12.7 mph 20.7 mph 55 % 0.00 in
20:45 20.2 °F 6.6 °F 30.09 in NW 8.6 mph 19.6 mph 55 % 0.00 in
20:50 20.1 °F 6.5 °F 30.10 in West 13.0 mph 19.6 mph 55 % 0.00 in
20:55 20.0 °F 5.6 °F 30.10 in NW 14.2 mph 20.7 mph 53 % 0.00 in
21:00 19.8 °F 6.2 °F 30.10 in WNW 10.8 mph 19.6 mph 55 % 0.00 in
21:05 19.7 °F 6.1 °F 30.10 in NW 10.0 mph 21.9 mph 55 % 0.00 in
21:10 19.6 °F 5.2 °F 30.11 in NNE 10.5 mph 16.1 mph 53 % 0.00 in
21:15 19.6 °F 6.4 °F 30.10 in WNW 4.1 mph 15.0 mph 56 % 0.00 in
21:20 19.6 °F 6.8 °F 30.11 in NW 7.7 mph 20.7 mph 57 % 0.00 in
21:25 19.7 °F 7.3 °F 30.11 in NNW 8.8 mph 14.0 mph 58 % 0.00 in
21:30 19.7 °F 6.5 °F 30.11 in NW 8.0 mph 11.5 mph 56 % 0.00 in
21:41 19.4 °F 6.2 °F 30.11 in WSW 8.4 mph 15.0 mph 56 % 0.00 in
21:46 19.3 °F 5.3 °F 30.12 in WNW 10.9 mph 19.6 mph 54 % 0.00 in
21:51 19.1 °F 5.2 °F 30.12 in West 10.4 mph 19.6 mph 54 % 0.00 in
21:56 19.1 °F 5.2 °F 30.12 in West 8.0 mph 15.0 mph 54 % 0.00 in
22:01 19.1 °F 6.3 °F 30.12 in WSW 12.3 mph 18.4 mph 57 % 0.00 in
22:06 19.2 °F 6.4 °F 30.13 in West 9.7 mph 13.8 mph 57 % 0.00 in
22:11 19.1 °F 5.6 °F 30.12 in WSW 6.3 mph 17.3 mph 55 % 0.00 in
22:16 19.1 °F 6.0 °F 30.13 in NW 11.1 mph 24.2 mph 56 % 0.00 in
22:22 19.1 °F 4.8 °F 30.13 in WSW 9.9 mph 21.9 mph 53 % 0.00 in
22:27 19.0 °F 5.1 °F 30.13 in West 10.4 mph 19.6 mph 54 % 0.00 in
22:32 18.9 °F 5.0 °F 30.14 in NW 8.6 mph 19.6 mph 54 % 0.00 in
22:37 18.9 °F 5.0 °F 30.13 in NW 11.5 mph 18.4 mph 54 % 0.00 in
22:42 18.9 °F 5.4 °F 30.13 in WNW 9.3 mph 13.8 mph 55 % 0.00 in
22:52 18.8 °F 5.3 °F 30.13 in WSW 7.6 mph 18.4 mph 55 % 0.00 in
22:57 18.8 °F 5.3 °F 30.14 in NNW 7.2 mph 18.4 mph 55 % 0.00 in
23:02 18.8 °F 5.7 °F 30.14 in WNW 12.3 mph 18.0 mph 56 % 0.00 in
23:07 18.8 °F 5.3 °F 30.14 in NW 5.7 mph 13.8 mph 55 % 0.00 in
23:13 18.8 °F 6.1 °F 30.14 in NW 10.5 mph 17.3 mph 57 % 0.00 in
23:18 18.8 °F 5.3 °F 30.14 in NW 7.2 mph 19.6 mph 55 % 0.00 in
23:23 18.7 °F 5.2 °F 30.15 in WNW 11.3 mph 20.7 mph 55 % 0.00 in
23:28 18.6 °F 5.1 °F 30.15 in WNW 7.4 mph 19.0 mph 55 % 0.00 in
23:33 18.6 °F 5.5 °F 30.16 in NW 8.2 mph 11.5 mph 56 % 0.00 in
23:43 18.6 °F 5.5 °F 30.16 in WNW 6.7 mph 15.0 mph 56 % 0.00 in
23:48 18.5 °F 5.4 °F 30.16 in SW 5.4 mph 8.0 mph 56 % 0.00 in
23:53 18.5 °F 5.4 °F 30.17 in NW 11.2 mph 21.9 mph 56 % 0.00 in
23:58 18.5 °F 5.4 °F 30.17 in West 7.4 mph 24.2 mph 56 % 0.00 in
Crab Meadow Weather
Compliments of Weather Underground - 2.75 mb

Script developed by  Jim McMurry - jmcmurry@mwt.net Adapted for the template by  Wim van der Kuil - Leuven-Template.eu

Weather Terms: Gustnado - A gust front tornado. A small, weak, short-lived tornado that occurs along a gust front - the leading edge of a thunderstorm, caused by rain-cooled air flowing out from the storm's downdraft. A gustnado is often visible as a debris cloud or dust whirl.